Flag for Austria Past Weather in Gerasdorf bei Wien, Lower Austria, Austria — Yesterday and Last 2 Weeks

Now
79 °F

Passing clouds.


Feels Like: 81 °F
Forecast: 67 / 85 °F
Wind: 3 mph from West

Location: Wien / Hohe Warte

Current Time: Jul 26, 2016 at 10:23:57 AM

Latest Report: Jul 26, 2016 at 10:00 AM


Visibility: 19 mi

Pressure: 30.01 "Hg

Humidity: 65%

Dew Point: 66 °F

Location of Gerasdorf bei WienLocation

Past Weather in Gerasdorf bei Wien — Graph

°F

Gerasdorf bei Wien Temperature Yesterday

Maximum temperature yesterday: 83 °F (at 6:00 PM)
Minimum temperature yesterday: 69 °F (at 6:00 AM)
Average temperature yesterday: 76 °F

High & Low Weather Summary for the Past Weeks

 TemperatureHumidityPressure
High92 °F (Jul 11, 2:00 PM)96% (Jul 23, 6:00 AM)30.22 "Hg (Jul 23, 6:00 AM)
Low55 °F (Jul 14, 6:00 AM)41% (Jul 19, 6:00 PM)29.76 "Hg (Jul 14, 7:00 AM)
Average71 °F69%30.00 "Hg
* Reported Jul 11 9:00 AM — Jul 26 9:00 AM, Gerasdorf bei Wien, Weather by CustomWeather, © 2016

Note: Actual official high and low records may vary slightly from our data, if they occured in-between our weather recording intervals... More about our weather records

Advertising

Gerasdorf bei Wien Weather History for the Previous 24 Hours

Scroll right to see more
 ConditionsComfort  
Time TempWeatherWind HumidityBarometerVisibility
9:00 AM
Tue, Jul 26
76 °FPassing clouds.3 mph67%30.02 "Hg19 mi
8:00 AM75 °FPassing clouds.2 mph70%30.02 "Hg19 mi
7:00 AM72 °FScattered clouds.5 mph77%30.02 "Hg22 mi
6:00 AM71 °FPartly sunny.2 mph78%30.01 "Hg22 mi
5:00 AM71 °FMild.6 mph76%30.00 "HgN/A
4:00 AM72 °FMild.7 mph68%29.99 "HgN/A
3:00 AM73 °FMild.6 mph69%29.99 "HgN/A
2:00 AM73 °FPassing clouds.6 mph73%29.99 "Hg12 mi
1:00 AM73 °FMild.8 mph73%29.99 "HgN/A
12:00 AM73 °FMild.5 mph71%30.00 "HgN/A
11:00 PM
Mon, Jul 25
73 °FPassing clouds.6 mph72%29.99 "Hg12 mi
10:00 PM74 °FMild.6 mph68%29.99 "HgN/A
9:00 PM75 °FMild.6 mph68%29.98 "HgN/A
8:00 PM77 °FOvercast.6 mph67%29.98 "Hg19 mi
7:00 PM80 °FPartly sunny.5 mph60%29.97 "Hg19 mi
6:00 PM83 °FOvercast.3 mph52%29.95 "Hg19 mi
5:00 PM82 °FOvercast.3 mph56%29.96 "Hg19 mi
4:00 PM82 °FOvercast.2 mph58%29.97 "Hg19 mi
3:00 PM83 °FOvercast.2 mph52%29.97 "Hg17 mi
2:00 PM82 °FPartly sunny.1 mph54%29.99 "Hg19 mi
1:00 PM80 °FPartly sunny.1 mph60%30.00 "Hg19 mi
12:00 PM80 °FScattered clouds.3 mph57%30.01 "Hg19 mi
11:00 AM79 °FScattered clouds.2 mph58%30.02 "Hg19 mi
10:00 AM77 °FScattered clouds.2 mph64%30.02 "Hg19 mi
Weather by CustomWeather, © 2016

See weather overviewHow to use our weather pages